Location: Litvinovka
(48.6667°N, 34.3500°E)
Time: 15:56:42
(UTC+00:00)

Cosmos 2195 Rocket - Pass Details

Date: 18 September 2020
Orbit: 948 x 994 km, 82.9° (Epoch: 22 October)

Event Time Altitude Azimuth Distance (km) Brightness Sun altitude
Rises 18:07:08 0° 350° (N) 3,704 8.1 -22.6°
Reaches altitude 10° 18:09:41 10° 351° (N) 2,746 7.4 -22.9°
Maximum altitude 18:15:59 89° 269° (W) 980 4.4 -23.8°
Enters shadow 18:18:33 39° 173° (S) 1,427 5.0 -24.2°
